Flag for Kosovo Weather past 2 weeks in Uroševac, Kosovo

Now
93 °F

Partly sunny.


Feels Like: 93 °F
Forecast: 57 / 77 °F
Wind: 6 mph from Southeast

Location: Skopje-Petrovec

Current Time: Jul 30, 2014 at 4:09:31 PM

Latest Report: Jul 30, 2014 at 3:30 PM


Visibility: N/A

Pressure: 29.80 "Hg

Humidity: 34%

Dew point: 61 °F

Location of UroševacLocation

Historic Weather in Uroševac — Graph

°F

Uroševac temperature yesterday

Maximum temperature yesterday: 90 °F (at 3:30 PM)
Minimum temperature yesterday: 63 °F (at 4:30 AM)
Average temperature yesterday: 76 °F

Past Weeks' High & Low Weather Summary

 TemperatureHumidityPressure
High95 °F (Jul 21, 3:30 PM)100% (Jul 17, 3:30 AM)30.04 "Hg (Jul 17, 3:30 AM)
Low57 °F (Jul 17, 5:30 AM)20% (Jul 21, 3:30 PM)29.71 "Hg (Jul 23, 2:30 PM)
Average74 °F67%29.91 "Hg
* Reported Jul 15 3:00 PM — Jul 30 3:00 PM, Uroševac, Weather by CustomWeather, © 2014

Note: Actual official high and low records may vary slightly from our data, if they occured in-between our weather recording intervals... More about our weather records

Advertising

Uroševac weather history for previous 24 hours

 ConditionsComfort  
Time TempWeatherWind HumidityBarometerVisibility
3:00 PM
Jul 30
93 °FScattered clouds.7 mph32%29.80 "HgN/A
2:30 PM91 °FScattered clouds.3 mph34%29.80 "HgN/A
2:00 PM91 °FPassing clouds.5 mph34%29.80 "HgN/A
1:30 PM91 °FPassing clouds.5 mph36%29.83 "HgN/A
1:00 PM91 °FSunny.2 mph38%29.83 "Hg10 mi
12:30 PM88 °FPassing clouds.5 mph43%29.83 "HgN/A
12:00 PM86 °FPassing clouds.5 mph46%29.86 "HgN/A
11:30 AM86 °FSunny.6 mph49%29.86 "Hg10 mi
11:00 AM82 °FSunny.3 mph55%29.86 "Hg10 mi
10:30 AM81 °FSunny.2 mph58%29.86 "Hg10 mi
10:00 AM79 °FSunny.2 mph58%29.89 "Hg10 mi
9:30 AM77 °FSunny.2 mph61%29.89 "Hg10 mi
9:00 AM75 °FSunny.1 mph65%29.86 "Hg10 mi
8:30 AM75 °FSunny.No wind65%29.89 "Hg10 mi
8:00 AM72 °FSunny.No wind73%29.89 "Hg10 mi
7:30 AM70 °FSunny.1 mph78%29.89 "Hg10 mi
7:00 AM64 °FSunny.2 mph88%29.89 "Hg10 mi
6:00 AM63 °FPassing clouds.No wind88%29.89 "HgN/A
5:00 AM63 °FPassing clouds.1 mph88%29.86 "HgN/A
4:30 AM63 °FPassing clouds.2 mph88%29.86 "HgN/A
4:00 AM64 °FPassing clouds.2 mph88%29.86 "HgN/A
3:30 AM64 °FPassing clouds.2 mph88%29.86 "HgN/A
3:00 AM64 °FPassing clouds.1 mph88%29.86 "HgN/A
2:30 AM64 °FPassing clouds.1 mph88%29.86 "HgN/A
2:00 AM66 °FPassing clouds.1 mph83%29.86 "HgN/A
1:30 AM66 °FPassing clouds.2 mph83%29.86 "HgN/A
1:00 AM66 °FPassing clouds.2 mph83%29.86 "HgN/A
12:30 AM68 °FPassing clouds.1 mph83%29.86 "HgN/A
12:00 AM68 °FPassing clouds.1 mph83%29.86 "HgN/A
11:30 PM
Jul 29
70 °FPassing clouds.1 mph78%29.86 "HgN/A
11:00 PM72 °FPassing clouds.No wind78%29.86 "HgN/A
10:30 PM73 °FPassing clouds.2 mph69%29.86 "HgN/A
10:00 PM75 °FPassing clouds.2 mph69%29.86 "HgN/A
9:30 PM75 °FPassing clouds.2 mph69%29.83 "HgN/A
9:00 PM77 °FPassing clouds.3 mph65%29.83 "HgN/A
8:30 PM79 °FPassing clouds.3 mph54%29.83 "HgN/A
8:00 PM82 °FPassing clouds.2 mph48%29.83 "HgN/A
7:30 PM86 °FPassing clouds.5 mph38%29.80 "HgN/A
7:00 PM86 °FPassing clouds.5 mph38%29.80 "HgN/A
6:30 PM90 °FScattered clouds.No wind31%29.80 "HgN/A
6:00 PM90 °FScattered clouds.No wind33%29.80 "HgN/A
5:30 PM88 °FScattered clouds.No wind33%29.80 "HgN/A
5:00 PM90 °FPassing clouds.2 mph29%29.80 "HgN/A
4:30 PM90 °FPassing clouds.3 mph29%29.83 "HgN/A
4:00 PM90 °FPassing clouds.No wind36%29.83 "HgN/A
Weather by CustomWeather, © 2014

See weather overviewHow to use our weather pages